Printer-friendly version

IAU Minor Planet Center

Minor Planet Center

MPEC 2006-T18 : 2006 TL

The following Minor Planet Electronic Circular may be linked-to from your own Web pages, but must not otherwise be redistributed electronically.


Read MPEC 2006-T17 Read MPEC 2006-T19


M.P.E.C. 2006-T18                                Issued 2006 Oct. 3, 13:14 UT

     The Minor Planet Electronic Circulars contain information on unusual
         minor planets and routine data on comets.  They are published
   on behalf of Commission 20 of the International Astronomical Union by the
          Minor Planet Center, Smithsonian Astrophysical Observatory,
                          Cambridge, MA 02138, U.S.A.

             Prepared using the Tamkin Foundation Computer Network

                              MPC@CFA.HARVARD.EDU
          URL http://cfa-www.harvard.edu/iau/mpc.html  ISSN 1523-6714

                                    2006 TL

Observations:
     K06T00L* C2006 10 01.42485 03 07 20.96 +20 58 56.9          21.2 V ET018G96
     K06T00L  C2006 10 01.43098 03 07 21.72 +20 58 40.1          20.9 V ET018G96
     K06T00L  C2006 10 01.43713 03 07 22.51 +20 58 23.5          21.1 V ET018G96
     K06T00L  C2006 10 01.44326 03 07 23.19 +20 58 06.7          21.5 V ET018G96
     K06T00L  C2006 10 01.48466 03 07 28.41 +20 56 11.7          21.6 V ET018G96
     K06T00L  C2006 10 01.48823 03 07 28.88 +20 56 01.7          22.1 V ET018G96
     K06T00L  C2006 10 01.49185 03 07 29.35 +20 55 51.6          22.1 V ET018G96
     K06T00L  C2006 10 01.49542 03 07 29.82 +20 55 41.8          22.5 V ET018G96
     K06T00L  C2006 10 03.44010 03 12 31.63 +19 16 06.5                 ET018291
     K06T00L  C2006 10 03.44444 03 12 32.29 +19 15 49.3                 ET018291
     K06T00L  C2006 10 03.45044 03 12 33.08 +19 15 31.4                 ET018291

Observer details:
291 LPL/Spacewatch II.  Observer T. H. Bressi.  1.8-m f/2.7 reflector + CCD.
G96 Mt. Lemmon Survey.  Observer R. A. Kowalski.  Measurers E. C. Beshore,
    E. J. Christensen, G. J. Garradd, A. R. Gibbs, A. D. Grauer, R. E. Hill,
    R. A. Kowalski, S. M. Larson, R. H. McNaught.  1.5-m reflector + CCD.

Orbital elements:
2006 TL                                                  Earth MOID = 0.0452 AU
Epoch 2006 Sept. 22.0 TT = JDT 2454000.5                MPC
M 251.83921              (2000.0)            P               Q
n   1.07923197     Peri.  315.10444     -0.86741678     -0.49458232
a   0.9412959      Node   195.51558     +0.49426165     -0.84378718
e   0.4017832      Incl.   11.76811     +0.05738951     -0.20835431
P   0.91           H   23.9           G   0.15           U   9
Residuals in seconds of arc
061001 G96  0.1+  0.3-    061001 G96  0.3-  0.0     061003 291  0.2-  0.5+
061001 G96  0.1+  0.3-    061001 G96  0.1-  0.0     061003 291  0.5+  1.7-
061001 G96  0.5+  0.0     061001 G96  0.1+  0.1+    061003 291  0.3-  1.2+
061001 G96  0.7-  0.1+    061001 G96  0.3+  0.3+

Ephemeris:
2006 TL                  a,e,i = 0.94, 0.40, 12                  q = 0.5631
Date    TT    R. A. (2000) Decl.     Delta      r     Elong.  Phase     V
2006 10 02    03 08.77   +20 32.2    0.150    1.117   138.1    36.8    21.5
2006 10 04    03 14.10   +18 43.3    0.135    1.107   139.4    36.0    21.2
2006 10 06    03 20.21   +16 25.3    0.121    1.096   140.5    35.5    21.0
2006 10 08    03 27.42   +13 27.6    0.106    1.084   141.3    35.2    20.7
2006 10 10    03 36.14   +09 34.4    0.0926   1.073   141.4    35.5    20.3
2006 10 12    03 47.07   +04 22.1    0.0798   1.061   140.4    36.9    20.0
2006 10 14    04 01.30   -02 43.3    0.0682   1.049   137.3    40.2    19.8
2006 10 16    04 20.73   -12 23.6    0.0584   1.036   131.0    46.5    19.6
2006 10 18    04 48.70   -25 04.9    0.0514   1.024   120.6    56.9    19.6
2006 10 20    05 31.28   -39 50.5    0.0484   1.011   106.5    70.9    19.8
2006 10 22    06 37.96   -53 25.9    0.0500   0.997    91.0    86.1    20.4
2006 10 24    08 13.70   -61 58.7    0.0558   0.984    77.4    99.5    21.2
2006 10 26    09 56.46   -64 23.7    0.0647   0.970    66.6   109.8    22.0
2006 10 28    11 14.51   -63 02.3    0.0756   0.957    58.6   117.5    22.9
2006 10 30    12 04.87   -60 26.6    0.0877   0.942    52.6   123.2    23.6
2006 11 01    12 37.27   -57 45.0    0.101    0.928    47.9   127.5    24.2

Timothy B. Spahr             (C) Copyright 2006 MPC           M.P.E.C. 2006-T18

Read MPEC 2006-T17 Read MPEC 2006-T19


Our Web policy. Index to the CBAT/MPC/ICQ pages.


Valid HTML 4.01!